Location: LDNL
(36.4545°S, 141.6685°E)
Time: 20:17:28
(UTC+10:00)

A-11 Canister half - Pass Details

Date: 28 January 2022
Orbit: 1527 x 1682 km, 47.3° (Epoch: 20 May)

Event Time Altitude Azimuth Distance (km) Brightness Sun altitude
Rises 03:28:56 0° 253° (WSW) 4,927 11.6 -30.1°
Reaches altitude 10° 03:32:22 10° 246° (WSW) 3,926 11.1 -29.7°
Maximum altitude 03:41:54 45° 175° (S) 2,112 10.0 -28.8°
Drops below altitude 10° 03:51:09 10° 103° (ESE) 3,808 11.6 -27.8°
Sets 03:54:25 0° 97° (E) 4,769 12.1 -27.4°
